Find OneWeb SL0411

NORAD ID: 51623 Int'l Des: 2022-012 Owner: ONEWEBN Country: UK Constellation: oneweb operational
LEOCIRCULARPOLARONEWEB_TYPE

現在のビュー

3D地球を読み込み中...

About OneWeb SL0411

OneWeb SL0411 (NORAD 51623) is a oneweb constellation satellite launched Feb 10, 2022 by ONEWEBN of UK. It operates in LEO, CIRCULAR, POLAR, ONEWEB_TYPE orbit with a mass of 148.00 kg.

OneWeb SL0411について

説明を読み込み中...

次回通過

Passes for default location (London). Set your location on the main map for personalized predictions.

高度履歴

Loading altitude history...

軌道要素

1 51623U 22012B 26169.61659314 -.00002908 00000-0 -83744-2 0 9992
2 51623 87.8837 35.9818 0001688 101.4219 258.7098 13.10330773209474
Epoch: Jun 18, 2026 • Age: 6 hours

現在のステータス

高度 1224.7 km
速度 7.25 km/s
衛星直下点 29.21°N, 8.31°W
打ち上げ日 Feb 10, 2022
運用期間 4.3 years
タイプ internet

技術仕様

分類 Payload
質量 148.00 kg
乾燥質量 140.00 kg
総質量 148.00 kg
長さ 1.30 m
直径 1.00 m
スパン 5.00 m
形状 Trapezoid+2 pan
製造者 ONEWUS
バスタイプ ARROW
フェーズステータス In Orbit
所有者/国 ONEWEBN/UK

Most Searched